Location: Berlin
(52.5170°N, 13.4000°E)
Time: 06:44:59
(UTC+02:00)

ISS - Pass Details

Date: 19 July 2018
Orbit: 402 x 408 km, 51.6° (Epoch: 18 July)

Event Time Altitude Azimuth Distance (km) Brightness Sun altitude
Rises 23:01:39 0° 220° (SW) 2,314 -0.2 -11.4°
Reaches altitude 10° 23:03:55 10° 207° (SSW) 1,459 -1.3 -11.6°
Maximum altitude 23:06:41 25° 150° (SSE) 858 -2.8 -11.8°
Drops below altitude 10° 23:09:27 10° 92° (E) 1,467 -1.3 -12.0°
Sets 23:11:45 0° 79° (E) 2,332 -0.2 -12.2°
